| time (UTC) | temp F | wind direction | speed MPH | gust MPH | rain 1hr in | rain 24hr in | rain mn in | humidity % | barometer mb |
| 20260507230031 | 46 | 63 | 0.0 | 2.0 | 0.00 | 0.00 | 0.00 | 94 | 1018.8 |
| 20260507224531 | 46 | 68 | 0.0 | 2.0 | 0.00 | 0.00 | 0.00 | 93 | 1018.8 |
| 20260507223031 | 46 | 98 | 1.0 | 2.0 | 0.00 | 0.00 | 0.00 | 93 | 1018.8 |
| 20260507221531 | 46 | 93 | 1.0 | 2.0 | 0.00 | 0.00 | 0.00 | 92 | 1018.8 |
| 20260507214531 | 47 | 85 | 1.0 | 2.0 | 0.00 | 0.00 | 0.00 | 91 | 1018.5 |
| 20260507213032 | 47 | 91 | 1.0 | 4.0 | 0.00 | 0.00 | 0.00 | 90 | 1018.5 |
| 20260507210031 | 48 | 94 | 1.0 | 4.0 | 0.00 | 0.00 | 0.00 | 88 | 1018.5 |
| 20260507203032 | 49 | 95 | 1.0 | 4.0 | 0.00 | 0.00 | 0.00 | 86 | 1018.5 |
| 20260507201533 | 49 | 80 | 1.0 | 4.0 | 0.00 | 0.00 | 0.00 | 84 | 1018.0 |
| 20260507200031 | 50 | 58 | 1.0 | 4.0 | 0.00 | 0.00 | 0.00 | 82 | 1018.1 |
| 20260507193031 | 51 | 78 | 2.0 | 4.0 | 0.00 | 0.00 | 0.00 | 79 | 1017.9 |
| 20260507191532 | 51 | 50 | 2.0 | 6.0 | 0.00 | 0.00 | 0.00 | 77 | 1017.7 |
| 20260507190031 | 52 | 91 | 3.0 | 6.0 | 0.00 | 0.00 | 0.00 | 76 | 1017.8 |
| 20260507184531 | 53 | 76 | 2.0 | 6.0 | 0.00 | 0.00 | 0.00 | 74 | 1017.7 |
| 20260507181531 | 54 | 104 | 2.0 | 7.0 | 0.00 | 0.00 | 0.00 | 71 | 1017.2 |
| 20260507174533 | 56 | 107 | 3.0 | 11.0 | 0.00 | 0.00 | 0.00 | 68 | 1017.0 |
| 20260507173031 | 56 | 84 | 3.0 | 9.0 | 0.00 | 0.00 | 0.00 | 66 | 1017.1 |
| 20260507171531 | 57 | 56 | 3.0 | 9.0 | 0.00 | 0.00 | 0.00 | 65 | 1016.7 |
| 20260507170032 | 58 | 63 | 3.0 | 8.0 | 0.00 | 0.00 | 0.00 | 64 | 1016.8 |
| 20260507164532 | 58 | 81 | 4.0 | 11.0 | 0.00 | 0.00 | 0.00 | 64 | 1016.7 |
| 20260507163031 | 58 | 88 | 4.0 | 11.0 | 0.00 | 0.00 | 0.00 | 62 | 1016.7 |
| 20260507161533 | 59 | 82 | 4.0 | 9.0 | 0.00 | 0.00 | 0.00 | 62 | 1016.4 |
| 20260507160032 | 59 | 107 | 3.0 | 8.0 | 0.00 | 0.00 | 0.00 | 61 | 1016.4 |
| 20260507153033 | 60 | 105 | 3.0 | 9.0 | 0.00 | 0.00 | 0.00 | 56 | 1016.3 |
| 20260507150030 | 60 | 26 | 2.0 | 6.0 | 0.00 | 0.00 | 0.00 | 53 | 1016.2 |
| 20260507144532 | 59 | 8 | 3.0 | 8.0 | 0.00 | 0.00 | 0.00 | 55 | 1016.2 |
| 20260507141532 | 60 | 32 | 3.0 | 7.0 | 0.00 | 0.00 | 0.00 | 53 | 1016.3 |
| 20260507140030 | 62 | 9 | 2.0 | 7.0 | 0.00 | 0.00 | 0.00 | 54 | 1016.5 |
| 20260507134533 | 59 | 13 | 2.0 | 9.0 | 0.00 | 0.00 | 0.00 | 58 | 1016.5 |
| 20260507133030 | 60 | 63 | 3.0 | 8.0 | 0.00 | 0.00 | 0.00 | 59 | 1016.7 |
| 20260507131531 | 58 | 46 | 4.0 | 8.0 | 0.00 | 0.00 | 0.00 | 62 | 1016.6 |
| 20260507123030 | 59 | 15 | 3.0 | 9.0 | 0.00 | 0.00 | 0.00 | 57 | 1016.3 |
| 20260507121530 | 59 | 43 | 4.0 | 11.0 | 0.00 | 0.00 | 0.00 | 58 | 1016.1 |
| 20260507120030 | 61 | 23 | 2.0 | 11.0 | 0.00 | 0.00 | 0.00 | 55 | 1016.0 |
| 20260507114532 | 58 | 25 | 3.0 | 9.0 | 0.00 | 0.00 | 0.00 | 60 | 1016.2 |
| 20260507113030 | 58 | 20 | 2.0 | 7.0 | 0.00 | 0.00 | 0.00 | 61 | 1016.1 |
| 20260507111530 | 59 | 12 | 2.0 | 7.0 | 0.00 | 0.00 | 0.00 | 60 | 1016.4 |
| 20260507110032 | 60 | 338 | 2.0 | 8.0 | 0.00 | 0.01 | 0.00 | 60 | 1016.4 |
| 20260507103030 | 58 | 359 | 2.0 | 8.0 | 0.00 | 0.01 | 0.00 | 64 | 1016.2 |
| 20260507101530 | 57 | 12 | 3.0 | 9.0 | 0.00 | 0.01 | 0.00 | 65 | 1016.1 |
| 20260507100030 | 58 | 2 | 2.0 | 8.0 | 0.00 | 0.02 | 0.00 | 62 | 1016.2 |
| 20260507094531 | 58 | 55 | 3.0 | 9.0 | 0.00 | 0.02 | 0.00 | 65 | 1015.8 |
| 20260507093030 | 54 | 17 | 3.0 | 9.0 | 0.00 | 0.02 | 0.00 | 68 | 1015.9 |
| 20260507091530 | 54 | 27 | 3.0 | 7.0 | 0.00 | 0.02 | 0.00 | 70 | 1015.7 |
| 20260507090030 | 54 | 59 | 3.0 | 9.0 | 0.00 | 0.04 | 0.00 | 69 | 1015.8 |
| 20260507084532 | 55 | 326 | 3.0 | 7.0 | 0.00 | 0.04 | 0.00 | 68 | 1015.8 |
| 20260507083030 | 55 | 5 | 3.0 | 7.0 | 0.00 | 0.04 | 0.00 | 72 | 1015.6 |
| 20260507081530 | 54 | 345 | 3.0 | 8.0 | 0.00 | 0.05 | 0.00 | 73 | 1015.5 |
| 20260507080030 | 52 | 1 | 3.0 | 7.0 | 0.00 | 0.05 | 0.00 | 75 | 1015.4 |
| 20260507073031 | 53 | 3 | 1.0 | 4.0 | 0.00 | 0.06 | 0.00 | 79 | 1015.1 |
| 20260507071530 | 52 | 333 | 1.0 | 4.0 | 0.00 | 0.06 | 0.00 | 80 | 1015.1 |
| 20260507070031 | 51 | 320 | 2.0 | 4.0 | 0.00 | 0.07 | 0.00 | 82 | 1014.9 |
| 20260507064531 | 49 | 352 | 1.0 | 4.0 | 0.00 | 0.08 | 0.00 | 83 | 1015.1 |
| 20260507063031 | 49 | 329 | 2.0 | 4.0 | 0.00 | 0.09 | 0.00 | 85 | 1015.1 |
| 20260507060030 | 47 | 354 | 2.0 | 4.0 | 0.00 | 0.11 | 0.00 | 88 | 1014.6 |
| 20260507054530 | 46 | 355 | 1.0 | 4.0 | 0.00 | 0.12 | 0.00 | 89 | 1014.8 |
| 20260507053030 | 46 | 335 | 2.0 | 4.0 | 0.00 | 0.12 | 0.00 | 90 | 1014.5 |
| 20260507051532 | 45 | 356 | 1.0 | 4.0 | 0.00 | 0.13 | 0.00 | 91 | 1014.5 |
| 20260507050030 | 44 | 333 | 2.0 | 4.0 | 0.00 | 0.13 | 0.00 | 92 | 1014.0 |
| 20260507044530 | 44 | 319 | 1.0 | 4.0 | 0.00 | 0.14 | 0.00 | 93 | 1014.0 |
| 20260507041532 | 44 | 334 | 1.0 | 4.0 | 0.00 | 0.19 | 0.00 | 94 | 1013.7 |
| 20260507040030 | 44 | 347 | 1.0 | 6.0 | 0.00 | 0.20 | 0.00 | 94 | 1013.6 |
| 20260507034530 | 44 | 348 | 1.0 | 4.0 | 0.00 | 0.22 | 0.00 | 93 | 1013.5 |
| 20260507033031 | 45 | 325 | 2.0 | 4.0 | 0.00 | 0.25 | 0.00 | 93 | 1013.4 |
| 20260507031529 | 45 | 327 | 1.0 | 4.0 | 0.00 | 0.26 | 0.00 | 93 | 1013.1 |
| 20260507030029 | 45 | 349 | 2.0 | 6.0 | 0.00 | 0.27 | 0.00 | 93 | 1013.2 |
| 20260507023030 | 45 | 321 | 1.0 | 4.0 | 0.00 | 0.30 | 0.00 | 92 | 1013.1 |
| 20260507021531 | 46 | 331 | 1.0 | 4.0 | 0.00 | 0.32 | 0.00 | 92 | 1013.1 |
| 20260507013034 | 46 | 331 | 1.0 | 6.0 | 0.00 | 0.41 | 0.00 | 91 | 1012.8 |
| 20260507011534 | 46 | 334 | 1.0 | 4.0 | 0.00 | 0.43 | 0.00 | 91 | 1012.8 |
| 20260507010034 | 46 | 341 | 1.0 | 4.0 | 0.00 | 0.45 | 0.00 | 91 | 1012.5 |
| 20260507003034 | 46 | 327 | 1.0 | 4.0 | 0.00 | 0.47 | 0.00 | 91 | 1012.6 |
| 20260507001536 | 46 | 346 | 1.0 | 4.0 | 0.00 | 0.48 | 0.00 | 91 | 1012.6 |
| 20260506234533 | 46 | 337 | 1.0 | 6.0 | 0.00 | 0.52 | 0.00 | 90 | 1012.6 |
| 20260506233033 | 47 | 341 | 1.0 | 4.0 | 0.00 | 0.53 | 0.00 | 89 | 1012.3 |